contact:dominique.lefevre@mio.osupytheas.fr, maurice.libes@osupytheas.fr, didier.mallarino@osupytheas.fr
Project:EMSO http://www.emso-fr.org/EMSO-France
Depth: 2436.0 m
Title:EMSO Ligure Ouest : Data MII capteur MICROCAT
DateTime_Computer,Latitude,Longitude,Temperature,Conductivity,Pressure,DateTime_Instrument
DateTime_Computer,Latitude,Longitude,degC,S m-1,dbar,DateTime_Instrument
2021-07-08T00:01:36Z,42.805,6.029,13.2991,4.60002,2470.427,2021-7-08T02:02:51Z
2021-07-08T00:04:39Z,42.805,6.029,13.2991,4.60002,2470.413,2021-7-08T02:05:54Z
2021-07-08T00:07:42Z,42.805,6.029,13.2990,4.60001,2470.437,2021-7-08T02:08:57Z
2021-07-08T00:10:45Z,42.805,6.029,13.2989,4.60001,2470.39,2021-7-08T02:12:01Z
2021-07-08T00:13:48Z,42.805,6.029,13.2991,4.60001,2470.413,2021-7-08T02:15:04Z
2021-07-08T00:16:51Z,42.805,6.029,13.2992,4.60001,2470.413,2021-7-08T02:18:07Z
2021-07-08T00:19:55Z,42.805,6.029,13.2986,4.60002,2470.45,2021-7-08T02:21:10Z
2021-07-08T00:22:58Z,42.805,6.029,13.2989,4.60004,2470.413,2021-7-08T02:24:13Z
2021-07-08T00:26:01Z,42.805,6.029,13.2991,4.60001,2470.413,2021-7-08T02:27:16Z
2021-07-08T00:29:04Z,42.805,6.029,13.2994,4.60000,2470.413,2021-7-08T02:30:19Z
2021-07-08T00:32:07Z,42.805,6.029,13.2992,4.60002,2470.413,2021-7-08T02:33:22Z
2021-07-08T00:35:10Z,42.805,6.029,13.2990,4.60001,2470.413,2021-7-08T02:36:25Z
2021-07-08T00:38:13Z,42.805,6.029,13.2989,4.60002,2470.413,2021-7-08T02:39:29Z
2021-07-08T00:41:16Z,42.805,6.029,13.2993,4.60001,2470.413,2021-7-08T02:42:32Z
2021-07-08T00:44:19Z,42.805,6.029,13.2991,4.60001,2470.39,2021-7-08T02:45:35Z
2021-07-08T00:47:23Z,42.805,6.029,13.2988,4.60000,2470.413,2021-7-08T02:48:38Z
2021-07-08T00:50:26Z,42.805,6.029,13.2993,4.60003,2470.413,2021-7-08T02:51:41Z
2021-07-08T00:53:29Z,42.805,6.029,13.2990,4.60001,2470.427,2021-7-08T02:54:44Z
2021-07-08T00:56:32Z,42.805,6.029,13.2996,4.60003,2470.45,2021-7-08T02:57:47Z
2021-07-08T00:59:35Z,42.805,6.029,13.2991,4.60003,2470.413,2021-7-08T03:00:50Z
2021-07-08T01:02:38Z,42.805,6.029,13.2990,4.60003,2470.39,2021-7-08T03:03:54Z
2021-07-08T01:05:41Z,42.805,6.029,13.2993,4.60005,2470.427,2021-7-08T03:06:57Z
2021-07-08T01:08:44Z,42.805,6.029,13.2989,4.60003,2470.39,2021-7-08T03:10:00Z
2021-07-08T01:11:48Z,42.805,6.029,13.2991,4.60002,2470.39,2021-7-08T03:13:03Z
2021-07-08T01:14:51Z,42.805,6.029,13.2991,4.60002,2470.39,2021-7-08T03:16:06Z
2021-07-08T01:17:54Z,42.805,6.029,13.2988,4.60002,2470.413,2021-7-08T03:19:09Z
2021-07-08T01:20:57Z,42.805,6.029,13.2996,4.60003,2470.413,2021-7-08T03:22:12Z
2021-07-08T01:24:00Z,42.805,6.029,13.2993,4.60003,2470.404,2021-7-08T03:25:15Z
2021-07-08T01:27:03Z,42.805,6.029,13.2996,4.60003,2470.413,2021-7-08T03:28:19Z
2021-07-08T01:30:06Z,42.805,6.029,13.2993,4.60003,2470.404,2021-7-08T03:31:22Z
2021-07-08T01:33:09Z,42.805,6.029,13.2987,4.60002,2470.413,2021-7-08T03:34:25Z
2021-07-08T01:36:12Z,42.805,6.029,13.2991,4.60000,2470.45,2021-7-08T03:37:28Z
2021-07-08T01:39:16Z,42.805,6.029,13.2989,4.60001,2470.404,2021-7-08T03:40:31Z
2021-07-08T01:42:19Z,42.805,6.029,13.2991,4.60002,2470.39,2021-7-08T03:43:34Z
2021-07-08T01:45:22Z,42.805,6.029,13.2991,4.60002,2470.404,2021-7-08T03:46:37Z
2021-07-08T01:48:25Z,42.805,6.029,13.2989,4.60001,2470.39,2021-7-08T03:49:40Z
2021-07-08T01:51:28Z,42.805,6.029,13.2989,4.60001,2470.39,2021-7-08T03:52:43Z
2021-07-08T01:54:31Z,42.805,6.029,13.2986,4.60003,2470.39,2021-7-08T03:55:47Z
2021-07-08T01:57:34Z,42.805,6.029,13.2990,4.60000,2470.437,2021-7-08T03:58:50Z
2021-07-08T02:00:37Z,42.805,6.029,13.2986,4.60001,2470.404,2021-7-08T04:01:53Z
2021-07-08T02:03:41Z,42.805,6.029,13.2990,4.60001,2470.39,2021-7-08T04:04:56Z
2021-07-08T02:06:44Z,42.805,6.029,13.2991,4.60003,2470.39,2021-7-08T04:07:59Z
2021-07-08T02:09:47Z,42.805,6.029,13.2990,4.60004,2470.404,2021-7-08T04:11:02Z
2021-07-08T02:12:50Z,42.805,6.029,13.2993,4.60003,2470.45,2021-7-08T04:14:05Z
2021-07-08T02:15:53Z,42.805,6.029,13.2992,4.60003,2470.366,2021-7-08T04:17:08Z
2021-07-08T02:18:56Z,42.805,6.029,13.2993,4.60004,2470.39,2021-7-08T04:20:12Z
2021-07-08T02:21:59Z,42.805,6.029,13.2991,4.60003,2470.413,2021-7-08T04:23:15Z
2021-07-08T02:25:02Z,42.805,6.029,13.2990,4.60003,2470.413,2021-7-08T04:26:18Z
2021-07-08T02:28:05Z,42.805,6.029,13.2988,4.60005,2470.413,2021-7-08T04:29:21Z
2021-07-08T02:31:09Z,42.805,6.029,13.2990,4.60003,2470.404,2021-7-08T04:32:24Z
2021-07-08T02:34:12Z,42.805,6.029,13.2994,4.60003,2470.413,2021-7-08T04:35:27Z
2021-07-08T02:37:15Z,42.805,6.029,13.2989,4.60004,2470.427,2021-7-08T04:38:30Z
2021-07-08T02:40:18Z,42.805,6.029,13.2991,4.60003,2470.45,2021-7-08T04:41:33Z
2021-07-08T02:43:21Z,42.805,6.029,13.2990,4.60004,2470.437,2021-7-08T04:44:36Z
2021-07-08T02:46:24Z,42.805,6.029,13.2991,4.60003,2470.413,2021-7-08T04:47:40Z
2021-07-08T02:49:27Z,42.805,6.029,13.2992,4.60002,2470.413,2021-7-08T04:50:43Z
2021-07-08T02:52:30Z,42.805,6.029,13.2988,4.60002,2470.437,2021-7-08T04:53:46Z
2021-07-08T02:55:34Z,42.805,6.029,13.2990,4.60003,2470.413,2021-7-08T04:56:49Z
2021-07-08T02:58:37Z,42.805,6.029,13.2990,4.60003,2470.437,2021-7-08T04:59:52Z
2021-07-08T03:01:40Z,42.805,6.029,13.2994,4.60004,2470.413,2021-7-08T05:02:55Z
2021-07-08T03:04:43Z,42.805,6.029,13.2992,4.60003,2470.45,2021-7-08T05:05:58Z
2021-07-08T03:07:46Z,42.805,6.029,13.2990,4.60002,2470.437,2021-7-08T05:09:01Z
2021-07-08T03:10:49Z,42.805,6.029,13.2992,4.60001,2470.45,2021-7-08T05:12:05Z
2021-07-08T03:13:52Z,42.805,6.029,13.2991,4.60003,2470.474,2021-7-08T05:15:08Z
2021-07-08T03:16:55Z,42.805,6.029,13.2990,4.60005,2470.437,2021-7-08T05:18:11Z
2021-07-08T03:19:59Z,42.805,6.029,13.2991,4.60005,2470.446,2021-7-08T05:21:14Z
2021-07-08T03:23:02Z,42.805,6.029,13.2992,4.60003,2470.427,2021-7-08T05:24:17Z
2021-07-08T03:26:05Z,42.805,6.029,13.2990,4.60006,2470.45,2021-7-08T05:27:20Z
2021-07-08T03:29:08Z,42.805,6.029,13.2990,4.60007,2470.437,2021-7-08T05:30:23Z
2021-07-08T03:32:11Z,42.805,6.029,13.2990,4.60003,2470.474,2021-7-08T05:33:26Z
2021-07-08T03:35:14Z,42.805,6.029,13.2993,4.60005,2470.483,2021-7-08T05:36:29Z
2021-07-08T03:38:17Z,42.805,6.029,13.2989,4.60003,2470.497,2021-7-08T05:39:33Z
2021-07-08T03:41:20Z,42.805,6.029,13.2988,4.60003,2470.45,2021-7-08T05:42:36Z
2021-07-08T03:44:23Z,42.805,6.029,13.2993,4.60003,2470.437,2021-7-08T05:45:39Z
2021-07-08T03:47:27Z,42.805,6.029,13.2990,4.60001,2470.46,2021-7-08T05:48:42Z
2021-07-08T03:50:30Z,42.805,6.029,13.2991,4.60003,2470.437,2021-7-08T05:51:45Z
2021-07-08T03:53:33Z,42.805,6.029,13.2990,4.60001,2470.474,2021-7-08T05:54:48Z
2021-07-08T03:56:36Z,42.805,6.029,13.2993,4.60003,2470.474,2021-7-08T05:57:51Z
2021-07-08T03:59:39Z,42.805,6.029,13.2990,4.60001,2470.46,2021-7-08T06:00:54Z
2021-07-08T04:02:42Z,42.805,6.029,13.2993,4.60001,2470.46,2021-7-08T06:03:58Z
2021-07-08T04:05:45Z,42.805,6.029,13.2994,4.60004,2470.474,2021-7-08T06:07:01Z
2021-07-08T04:08:48Z,42.805,6.029,13.2991,4.60003,2470.483,2021-7-08T06:10:04Z
2021-07-08T04:11:51Z,42.805,6.029,13.2991,4.60003,2470.437,2021-7-08T06:13:07Z
2021-07-08T04:14:55Z,42.805,6.029,13.2988,4.60004,2470.474,2021-7-08T06:16:10Z
2021-07-08T04:17:58Z,42.805,6.029,13.2995,4.60003,2470.46,2021-7-08T06:19:13Z
2021-07-08T04:21:01Z,42.805,6.029,13.2990,4.60009,2470.483,2021-7-08T06:22:16Z
2021-07-08T04:24:04Z,42.805,6.029,13.2991,4.60005,2470.46,2021-7-08T06:25:19Z
2021-07-08T04:27:07Z,42.805,6.029,13.2989,4.60007,2470.483,2021-7-08T06:28:22Z
2021-07-08T04:30:10Z,42.805,6.029,13.2988,4.60005,2470.483,2021-7-08T06:31:26Z
2021-07-08T04:33:13Z,42.805,6.029,13.2992,4.60005,2470.483,2021-7-08T06:34:29Z
2021-07-08T04:36:16Z,42.805,6.029,13.2995,4.60002,2470.474,2021-7-08T06:37:32Z
2021-07-08T04:39:20Z,42.805,6.029,13.2991,4.60008,2470.483,2021-7-08T06:40:35Z
2021-07-08T04:42:23Z,42.805,6.029,13.2988,4.60004,2470.474,2021-7-08T06:43:38Z
2021-07-08T04:45:26Z,42.805,6.029,13.2994,4.60001,2470.483,2021-7-08T06:46:41Z
2021-07-08T04:48:29Z,42.805,6.029,13.2988,4.60003,2470.497,2021-7-08T06:49:44Z
2021-07-08T04:51:32Z,42.805,6.029,13.2991,4.60005,2470.507,2021-7-08T06:52:47Z
2021-07-08T04:54:35Z,42.805,6.029,13.2995,4.60006,2470.483,2021-7-08T06:55:51Z
2021-07-08T04:57:38Z,42.805,6.029,13.2990,4.60001,2470.483,2021-7-08T06:58:54Z
2021-07-08T05:00:41Z,42.805,6.029,13.2993,4.60006,2470.483,2021-7-08T07:01:57Z
2021-07-08T05:03:45Z,42.805,6.029,13.2995,4.60004,2470.46,2021-7-08T07:05:00Z
2021-07-08T05:06:48Z,42.805,6.029,13.2990,4.60007,2470.507,2021-7-08T07:08:03Z
2021-07-08T05:09:51Z,42.805,6.029,13.2990,4.60003,2470.46,2021-7-08T07:11:06Z
2021-07-08T05:12:54Z,42.805,6.029,13.2992,4.60005,2470.423,2021-7-08T07:14:09Z
2021-07-08T05:15:57Z,42.805,6.029,13.2989,4.60004,2470.46,2021-7-08T07:17:12Z
2021-07-08T05:19:00Z,42.805,6.029,13.2991,4.60004,2470.497,2021-7-08T07:20:15Z
2021-07-08T05:22:03Z,42.805,6.029,13.2993,4.60007,2470.52,2021-7-08T07:23:19Z
2021-07-08T05:25:06Z,42.805,6.029,13.2993,4.60002,2470.483,2021-7-08T07:26:22Z
2021-07-08T05:28:09Z,42.805,6.029,13.2990,4.60009,2470.483,2021-7-08T07:29:25Z
2021-07-08T05:31:13Z,42.805,6.029,13.2989,4.60005,2470.483,2021-7-08T07:32:28Z
2021-07-08T05:34:16Z,42.805,6.029,13.2990,4.60006,2470.52,2021-7-08T07:35:31Z
2021-07-08T05:37:19Z,42.805,6.029,13.2990,4.60002,2470.483,2021-7-08T07:38:34Z
2021-07-08T05:40:22Z,42.805,6.029,13.2993,4.60006,2470.507,2021-7-08T07:41:37Z
2021-07-08T05:43:25Z,42.805,6.029,13.2989,4.60007,2470.474,2021-7-08T07:44:40Z
2021-07-08T05:46:28Z,42.805,6.029,13.2993,4.60006,2470.507,2021-7-08T07:47:44Z
2021-07-08T05:49:31Z,42.805,6.029,13.2993,4.60007,2470.497,2021-7-08T07:50:47Z
2021-07-08T05:52:34Z,42.805,6.029,13.2993,4.60011,2470.497,2021-7-08T07:53:50Z
2021-07-08T05:55:38Z,42.805,6.029,13.2991,4.60009,2470.507,2021-7-08T07:56:53Z
2021-07-08T05:58:41Z,42.805,6.029,13.2993,4.60008,2470.507,2021-7-08T07:59:56Z
2021-07-08T06:01:44Z,42.805,6.029,13.2991,4.60007,2470.507,2021-7-08T08:02:59Z
2021-07-08T06:04:47Z,42.805,6.029,13.2993,4.60015,2470.507,2021-7-08T08:06:02Z
2021-07-08T06:07:50Z,42.805,6.029,13.2988,4.60007,2470.52,2021-7-08T08:09:05Z
2021-07-08T06:10:53Z,42.805,6.029,13.2990,4.60008,2470.507,2021-7-08T08:12:08Z
2021-07-08T06:13:56Z,42.805,6.029,13.2993,4.60008,2470.483,2021-7-08T08:15:12Z
2021-07-08T06:16:59Z,42.805,6.029,13.2996,4.60013,2470.483,2021-7-08T08:18:15Z
2021-07-08T06:20:02Z,42.805,6.029,13.2991,4.60009,2470.52,2021-7-08T08:21:18Z
2021-07-08T06:23:06Z,42.805,6.029,13.2991,4.60008,2470.52,2021-7-08T08:24:21Z
2021-07-08T06:26:09Z,42.805,6.029,13.2993,4.60009,2470.497,2021-7-08T08:27:24Z
2021-07-08T06:29:12Z,42.805,6.029,13.2992,4.60011,2470.507,2021-7-08T08:30:27Z
2021-07-08T06:32:15Z,42.805,6.029,13.2995,4.60005,2470.497,2021-7-08T08:33:30Z
2021-07-08T06:35:18Z,42.805,6.029,13.2991,4.60013,2470.52,2021-7-08T08:36:33Z
2021-07-08T06:38:21Z,42.805,6.029,13.2992,4.60007,2470.46,2021-7-08T08:39:37Z
2021-07-08T06:41:24Z,42.805,6.029,13.2993,4.60005,2470.52,2021-7-08T08:42:40Z
2021-07-08T06:44:27Z,42.805,6.029,13.2991,4.60004,2470.507,2021-7-08T08:45:43Z
2021-07-08T06:47:31Z,42.805,6.029,13.2991,4.60011,2470.483,2021-7-08T08:48:46Z
2021-07-08T06:50:34Z,42.805,6.029,13.2991,4.60009,2470.507,2021-7-08T08:51:49Z
2021-07-08T06:53:37Z,42.805,6.029,13.2993,4.60015,2470.483,2021-7-08T08:54:52Z
2021-07-08T06:56:40Z,42.805,6.029,13.2993,4.60009,2470.507,2021-7-08T08:57:55Z
2021-07-08T06:59:43Z,42.805,6.029,13.2993,4.60009,2470.474,2021-7-08T09:00:58Z
2021-07-08T07:02:46Z,42.805,6.029,13.2993,4.60007,2470.437,2021-7-08T09:04:02Z
2021-07-08T07:05:49Z,42.805,6.029,13.2989,4.60010,2470.507,2021-7-08T09:07:05Z
2021-07-08T07:08:52Z,42.805,6.029,13.2991,4.60006,2470.497,2021-7-08T09:10:08Z
2021-07-08T07:11:55Z,42.805,6.029,13.2990,4.60006,2470.483,2021-7-08T09:13:11Z
2021-07-08T07:14:59Z,42.805,6.029,13.2993,4.60009,2470.483,2021-7-08T09:16:14Z
2021-07-08T07:18:02Z,42.805,6.029,13.2991,4.60011,2470.474,2021-7-08T09:19:17Z
2021-07-08T07:21:05Z,42.805,6.029,13.2990,4.60014,2470.507,2021-7-08T09:22:20Z
2021-07-08T07:24:08Z,42.805,6.029,13.2991,4.60009,2470.437,2021-7-08T09:25:23Z
2021-07-08T07:27:11Z,42.805,6.029,13.2995,4.60009,2470.46,2021-7-08T09:28:26Z
2021-07-08T07:30:14Z,42.805,6.029,13.2991,4.60010,2470.46,2021-7-08T09:31:30Z
2021-07-08T07:33:17Z,42.805,6.029,13.2993,4.60007,2470.46,2021-7-08T09:34:33Z
2021-07-08T07:36:20Z,42.805,6.029,13.2991,4.60008,2470.497,2021-7-08T09:37:36Z
2021-07-08T07:39:24Z,42.805,6.029,13.2992,4.60008,2470.437,2021-7-08T09:40:39Z
2021-07-08T07:42:27Z,42.805,6.029,13.2991,4.60005,2470.437,2021-7-08T09:43:42Z
2021-07-08T07:45:30Z,42.805,6.029,13.2993,4.60011,2470.46,2021-7-08T09:46:45Z
2021-07-08T07:48:33Z,42.805,6.029,13.2993,4.60014,2470.507,2021-7-08T09:49:48Z
2021-07-08T07:51:36Z,42.805,6.029,13.2991,4.60011,2470.483,2021-7-08T09:52:51Z
2021-07-08T07:54:39Z,42.805,6.029,13.2991,4.60007,2470.497,2021-7-08T09:55:55Z
2021-07-08T07:57:42Z,42.805,6.029,13.2990,4.60017,2470.46,2021-7-08T09:58:58Z
2021-07-08T08:00:45Z,42.805,6.029,13.2993,4.60014,2470.437,2021-7-08T10:02:01Z
2021-07-08T08:03:49Z,42.805,6.029,13.2990,4.60013,2470.46,2021-7-08T10:05:04Z
2021-07-08T08:06:52Z,42.805,6.029,13.2991,4.60019,2470.474,2021-7-08T10:08:07Z
2021-07-08T08:09:55Z,42.805,6.029,13.2991,4.60016,2470.45,2021-7-08T10:11:10Z
2021-07-08T08:12:58Z,42.805,6.029,13.2993,4.60011,2470.46,2021-7-08T10:14:13Z
2021-07-08T08:16:01Z,42.805,6.029,13.2991,4.60014,2470.483,2021-7-08T10:17:16Z
2021-07-08T08:19:04Z,42.805,6.029,13.2989,4.60009,2470.474,2021-7-08T10:20:20Z
2021-07-08T08:22:07Z,42.805,6.029,13.2990,4.60014,2470.427,2021-7-08T10:23:23Z
2021-07-08T08:25:10Z,42.805,6.029,13.2993,4.60011,2470.437,2021-7-08T10:26:26Z
2021-07-08T08:28:13Z,42.805,6.029,13.2990,4.60011,2470.474,2021-7-08T10:29:29Z
2021-07-08T08:31:17Z,42.805,6.029,13.2992,4.60004,2470.413,2021-7-08T10:32:32Z
2021-07-08T08:34:20Z,42.805,6.029,13.2993,4.60011,2470.45,2021-7-08T10:35:35Z
2021-07-08T08:37:23Z,42.805,6.029,13.2991,4.60008,2470.46,2021-7-08T10:38:38Z
2021-07-08T08:40:26Z,42.805,6.029,13.2991,4.60008,2470.474,2021-7-08T10:41:41Z
2021-07-08T08:43:29Z,42.805,6.029,13.2990,4.60010,2470.45,2021-7-08T10:44:44Z
2021-07-08T08:46:32Z,42.805,6.029,13.2991,4.60007,2470.437,2021-7-08T10:47:48Z
2021-07-08T08:49:35Z,42.805,6.029,13.2990,4.60006,2470.437,2021-7-08T10:50:51Z
2021-07-08T08:52:39Z,42.805,6.029,13.2993,4.60009,2470.437,2021-7-08T10:53:54Z
2021-07-08T08:55:42Z,42.805,6.029,13.2992,4.60007,2470.437,2021-7-08T10:56:57Z
2021-07-08T08:58:45Z,42.805,6.029,13.2993,4.60008,2470.413,2021-7-08T11:00:00Z
2021-07-08T09:01:48Z,42.805,6.029,13.2993,4.60008,2470.413,2021-7-08T11:03:03Z
2021-07-08T09:04:51Z,42.805,6.029,13.2992,4.60008,2470.45,2021-7-08T11:06:06Z
2021-07-08T09:07:54Z,42.805,6.029,13.2991,4.60004,2470.413,2021-7-08T11:09:09Z
2021-07-08T09:10:57Z,42.805,6.029,13.2991,4.60008,2470.413,2021-7-08T11:12:13Z
2021-07-08T09:14:00Z,42.805,6.029,13.2990,4.60008,2470.437,2021-7-08T11:15:16Z
2021-07-08T09:17:03Z,42.805,6.029,13.2996,4.60010,2470.413,2021-7-08T11:18:19Z
2021-07-08T09:20:07Z,42.805,6.029,13.2991,4.60011,2470.413,2021-7-08T11:21:22Z
2021-07-08T09:23:10Z,42.805,6.029,13.2993,4.60005,2470.39,2021-7-08T11:24:25Z
2021-07-08T09:26:13Z,42.805,6.029,13.2992,4.60004,2470.39,2021-7-08T11:27:28Z
2021-07-08T09:29:16Z,42.805,6.029,13.2991,4.60003,2470.437,2021-7-08T11:30:31Z
2021-07-08T09:32:19Z,42.805,6.029,13.2991,4.60005,2470.39,2021-7-08T11:33:34Z
2021-07-08T09:35:22Z,42.805,6.029,13.2990,4.60005,2470.413,2021-7-08T11:36:38Z
2021-07-08T09:38:25Z,42.805,6.029,13.2991,4.60006,2470.427,2021-7-08T11:39:41Z
2021-07-08T09:41:28Z,42.805,6.029,13.2996,4.60007,2470.39,2021-7-08T11:42:44Z
2021-07-08T09:44:32Z,42.805,6.029,13.2990,4.60005,2470.39,2021-7-08T11:45:47Z
2021-07-08T09:47:35Z,42.805,6.029,13.2992,4.60009,2470.427,2021-7-08T11:48:50Z
2021-07-08T09:50:38Z,42.805,6.029,13.2990,4.60008,2470.366,2021-7-08T11:51:53Z
2021-07-08T09:53:41Z,42.805,6.029,13.2993,4.60009,2470.39,2021-7-08T11:54:56Z
2021-07-08T09:56:44Z,42.805,6.029,13.2996,4.60005,2470.39,2021-7-08T11:57:59Z
2021-07-08T09:59:47Z,42.805,6.029,13.2989,4.60005,2470.366,2021-7-08T12:01:03Z
2021-07-08T10:02:50Z,42.805,6.029,13.2992,4.60003,2470.427,2021-7-08T12:04:06Z
2021-07-08T10:05:53Z,42.805,6.029,13.2992,4.60009,2470.404,2021-7-08T12:07:09Z
2021-07-08T10:08:56Z,42.805,6.029,13.2991,4.60004,2470.39,2021-7-08T12:10:12Z
2021-07-08T10:12:00Z,42.805,6.029,13.2993,4.60008,2470.366,2021-7-08T12:13:15Z
2021-07-08T10:15:03Z,42.805,6.029,13.2989,4.60004,2470.38,2021-7-08T12:16:18Z
2021-07-08T10:18:06Z,42.805,6.029,13.2993,4.60003,2470.394,2021-7-08T12:19:21Z
2021-07-08T10:21:09Z,42.805,6.029,13.2989,4.60007,2470.366,2021-7-08T12:22:24Z
2021-07-08T10:24:12Z,42.805,6.029,13.2992,4.60012,2470.366,2021-7-08T12:25:28Z
2021-07-08T10:27:15Z,42.805,6.029,13.2996,4.60005,2470.38,2021-7-08T12:28:31Z
2021-07-08T10:30:18Z,42.805,6.029,13.2988,4.60004,2470.366,2021-7-08T12:31:34Z
2021-07-08T10:33:21Z,42.805,6.029,13.2989,4.60006,2470.366,2021-7-08T12:34:37Z
2021-07-08T10:36:25Z,42.805,6.029,13.2987,4.60006,2470.366,2021-7-08T12:37:40Z
2021-07-08T10:39:28Z,42.805,6.029,13.2991,4.60009,2470.38,2021-7-08T12:40:43Z
2021-07-08T10:42:31Z,42.805,6.029,13.2988,4.60005,2470.404,2021-7-08T12:43:46Z
2021-07-08T10:45:34Z,42.805,6.029,13.2991,4.60003,2470.343,2021-7-08T12:46:49Z
2021-07-08T10:48:37Z,42.805,6.029,13.2992,4.60007,2470.357,2021-7-08T12:49:52Z
2021-07-08T10:51:40Z,42.805,6.029,13.2990,4.60007,2470.357,2021-7-08T12:52:56Z
2021-07-08T10:54:43Z,42.805,6.029,13.2991,4.60011,2470.357,2021-7-08T12:55:59Z
2021-07-08T10:57:46Z,42.805,6.029,13.2994,4.60005,2470.343,2021-7-08T12:59:02Z
2021-07-08T11:00:50Z,42.805,6.029,13.2991,4.60005,2470.343,2021-7-08T13:02:05Z
2021-07-08T11:03:53Z,42.805,6.029,13.2990,4.60003,2470.32,2021-7-08T13:05:08Z
2021-07-08T11:06:56Z,42.805,6.029,13.2990,4.60004,2470.32,2021-7-08T13:08:11Z
2021-07-08T11:09:59Z,42.805,6.029,13.2991,4.60004,2470.357,2021-7-08T13:11:14Z
2021-07-08T11:13:02Z,42.805,6.029,13.2989,4.60006,2470.343,2021-7-08T13:14:17Z
2021-07-08T11:16:05Z,42.805,6.029,13.2993,4.60007,2470.357,2021-7-08T13:17:21Z
2021-07-08T11:19:08Z,42.805,6.029,13.2993,4.60006,2470.343,2021-7-08T13:20:24Z
2021-07-08T11:22:11Z,42.805,6.029,13.2993,4.60006,2470.343,2021-7-08T13:23:27Z
2021-07-08T11:25:15Z,42.805,6.029,13.2991,4.60008,2470.366,2021-7-08T13:26:30Z
2021-07-08T11:28:18Z,42.805,6.029,13.2993,4.60005,2470.366,2021-7-08T13:29:33Z
2021-07-08T11:31:21Z,42.805,6.029,13.2992,4.60004,2470.32,2021-7-08T13:32:36Z
2021-07-08T11:34:24Z,42.805,6.029,13.2992,4.60009,2470.32,2021-7-08T13:35:39Z
2021-07-08T11:37:27Z,42.805,6.029,13.2990,4.60009,2470.334,2021-7-08T13:38:42Z
2021-07-08T11:40:30Z,42.805,6.029,13.2992,4.60008,2470.334,2021-7-08T13:41:46Z
2021-07-08T11:43:33Z,42.805,6.029,13.2991,4.60011,2470.343,2021-7-08T13:44:49Z
2021-07-08T11:46:36Z,42.805,6.029,13.2991,4.60004,2470.32,2021-7-08T13:47:52Z
2021-07-08T11:49:40Z,42.805,6.029,13.2989,4.60004,2470.32,2021-7-08T13:50:55Z
2021-07-08T11:52:43Z,42.805,6.029,13.2991,4.60005,2470.32,2021-7-08T13:53:58Z
2021-07-08T11:55:46Z,42.805,6.029,13.2990,4.60003,2470.32,2021-7-08T13:57:01Z
2021-07-08T11:58:49Z,42.805,6.029,13.2991,4.60003,2470.32,2021-7-08T14:00:04Z
2021-07-08T12:01:52Z,42.805,6.029,13.2991,4.60005,2470.366,2021-7-08T14:03:07Z
2021-07-08T12:04:55Z,42.805,6.029,13.2993,4.60003,2470.357,2021-7-08T14:06:11Z
2021-07-08T12:07:58Z,42.805,6.029,13.2989,4.60003,2470.32,2021-7-08T14:09:14Z
2021-07-08T12:11:01Z,42.805,6.029,13.2993,4.60003,2470.32,2021-7-08T14:12:17Z
2021-07-08T12:14:05Z,42.805,6.029,13.2993,4.60003,2470.334,2021-7-08T14:15:20Z
2021-07-08T12:17:08Z,42.805,6.029,13.2990,4.60006,2470.334,2021-7-08T14:18:23Z
2021-07-08T12:20:11Z,42.805,6.029,13.2993,4.60010,2470.32,2021-7-08T14:21:26Z
2021-07-08T12:23:14Z,42.805,6.029,13.2989,4.60006,2470.343,2021-7-08T14:24:29Z
2021-07-08T12:26:17Z,42.805,6.029,13.2993,4.60004,2470.343,2021-7-08T14:27:32Z
2021-07-08T12:29:20Z,42.805,6.029,13.2996,4.60006,2470.334,2021-7-08T14:30:36Z
2021-07-08T12:32:23Z,42.805,6.029,13.2990,4.60004,2470.297,2021-7-08T14:33:39Z
2021-07-08T12:35:26Z,42.805,6.029,13.2991,4.60004,2470.357,2021-7-08T14:36:42Z
2021-07-08T12:38:30Z,42.805,6.029,13.2994,4.60004,2470.32,2021-7-08T14:39:45Z
2021-07-08T12:41:33Z,42.805,6.029,13.2991,4.60003,2470.353,2021-7-08T14:42:48Z
2021-07-08T12:44:36Z,42.805,6.029,13.2990,4.60005,2470.32,2021-7-08T14:45:51Z
2021-07-08T12:47:39Z,42.805,6.029,13.2992,4.60004,2470.32,2021-7-08T14:48:54Z
2021-07-08T12:50:42Z,42.805,6.029,13.2992,4.60005,2470.357,2021-7-08T14:51:57Z
2021-07-08T12:53:45Z,42.805,6.029,13.2991,4.60005,2470.343,2021-7-08T14:55:01Z
2021-07-08T12:56:48Z,42.805,6.029,13.2994,4.60004,2470.31,2021-7-08T14:58:04Z
2021-07-08T12:59:51Z,42.805,6.029,13.2991,4.60003,2470.32,2021-7-08T15:01:07Z
2021-07-08T13:02:54Z,42.805,6.029,13.2992,4.60003,2470.334,2021-7-08T15:04:10Z
2021-07-08T13:05:58Z,42.805,6.029,13.2991,4.60003,2470.32,2021-7-08T15:07:13Z
2021-07-08T13:09:01Z,42.805,6.029,13.2996,4.60007,2470.343,2021-7-08T15:10:16Z
2021-07-08T13:12:04Z,42.805,6.029,13.2995,4.60006,2470.343,2021-7-08T15:13:19Z
2021-07-08T13:15:07Z,42.805,6.029,13.2991,4.60003,2470.38,2021-7-08T15:16:22Z
2021-07-08T13:18:10Z,42.805,6.029,13.2993,4.60004,2470.334,2021-7-08T15:19:26Z
2021-07-08T13:21:13Z,42.805,6.029,13.2993,4.60003,2470.357,2021-7-08T15:22:29Z
2021-07-08T13:24:16Z,42.805,6.029,13.2990,4.60003,2470.366,2021-7-08T15:25:32Z
2021-07-08T13:27:19Z,42.805,6.029,13.2991,4.60003,2470.343,2021-7-08T15:28:35Z
2021-07-08T13:30:23Z,42.805,6.029,13.2990,4.60003,2470.357,2021-7-08T15:31:38Z
2021-07-08T13:33:26Z,42.805,6.029,13.2990,4.60004,2470.366,2021-7-08T15:34:41Z
2021-07-08T13:36:29Z,42.805,6.029,13.2993,4.60003,2470.343,2021-7-08T15:37:44Z
2021-07-08T13:39:32Z,42.805,6.029,13.2993,4.60003,2470.357,2021-7-08T15:40:47Z
2021-07-08T13:42:35Z,42.805,6.029,13.2988,4.60003,2470.38,2021-7-08T15:43:51Z
2021-07-08T13:45:38Z,42.805,6.029,13.2989,4.60004,2470.366,2021-7-08T15:46:54Z
2021-07-08T13:48:41Z,42.805,6.029,13.2990,4.60003,2470.366,2021-7-08T15:49:57Z
2021-07-08T13:51:44Z,42.805,6.029,13.2987,4.60002,2470.366,2021-7-08T15:53:00Z
2021-07-08T13:54:48Z,42.805,6.029,13.2991,4.60003,2470.357,2021-7-08T15:56:03Z
2021-07-08T13:57:51Z,42.805,6.029,13.2987,4.60006,2470.366,2021-7-08T15:59:06Z
2021-07-08T14:00:54Z,42.805,6.029,13.2993,4.60005,2470.366,2021-7-08T16:02:09Z
2021-07-08T14:03:57Z,42.805,6.029,13.2993,4.60004,2470.343,2021-7-08T16:05:12Z
2021-07-08T14:07:00Z,42.805,6.029,13.2988,4.60003,2470.39,2021-7-08T16:08:16Z
2021-07-08T14:10:03Z,42.805,6.029,13.2991,4.60004,2470.343,2021-7-08T16:11:19Z
2021-07-08T14:13:06Z,42.805,6.029,13.2993,4.60006,2470.334,2021-7-08T16:14:22Z
2021-07-08T14:16:09Z,42.805,6.029,13.2991,4.60011,2470.38,2021-7-08T16:17:25Z
2021-07-08T14:19:13Z,42.805,6.029,13.2993,4.60014,2470.404,2021-7-08T16:20:28Z
2021-07-08T14:22:16Z,42.805,6.029,13.2993,4.60005,2470.404,2021-7-08T16:23:31Z
2021-07-08T14:25:19Z,42.805,6.029,13.2991,4.60004,2470.357,2021-7-08T16:26:34Z
2021-07-08T14:28:22Z,42.805,6.029,13.2991,4.60005,2470.366,2021-7-08T16:29:37Z
2021-07-08T14:31:25Z,42.805,6.029,13.2990,4.60003,2470.343,2021-7-08T16:32:40Z
2021-07-08T14:34:28Z,42.805,6.029,13.2990,4.60003,2470.404,2021-7-08T16:35:44Z
2021-07-08T14:37:31Z,42.805,6.029,13.2992,4.60013,2470.38,2021-7-08T16:38:47Z
2021-07-08T14:40:34Z,42.805,6.029,13.2988,4.60013,2470.39,2021-7-08T16:41:50Z
2021-07-08T14:43:38Z,42.805,6.029,13.2990,4.60008,2470.366,2021-7-08T16:44:53Z
2021-07-08T14:46:41Z,42.805,6.029,13.2992,4.60007,2470.366,2021-7-08T16:47:56Z
2021-07-08T14:49:44Z,42.805,6.029,13.2990,4.60007,2470.404,2021-7-08T16:50:59Z
2021-07-08T14:52:47Z,42.805,6.029,13.2990,4.60007,2470.38,2021-7-08T16:54:02Z
2021-07-08T14:55:50Z,42.805,6.029,13.2989,4.60009,2470.366,2021-7-08T16:57:06Z
2021-07-08T14:58:53Z,42.805,6.029,13.2991,4.60006,2470.38,2021-7-08T17:00:09Z
2021-07-08T15:01:56Z,42.805,6.029,13.2990,4.60011,2470.404,2021-7-08T17:03:12Z
2021-07-08T15:04:59Z,42.805,6.029,13.2993,4.60008,2470.413,2021-7-08T17:06:15Z
2021-07-08T15:08:03Z,42.805,6.029,13.2992,4.60011,2470.413,2021-7-08T17:09:18Z
2021-07-08T15:11:06Z,42.805,6.029,13.2995,4.60011,2470.413,2021-7-08T17:12:21Z
2021-07-08T15:14:09Z,42.805,6.029,13.2990,4.60014,2470.404,2021-7-08T17:15:24Z